Regional Weather Roundup
Issued by NWS Green Bay, WI

Home | Current Version | Previous Version | Text Only | Print | Product List | Glossary On
Versions: 1 2 3 4 5 6 7 8 9 10 11 12 13 14 15 16 17 18 19 20 21 22 23 24 25 26 27 28 29 30 31 32 33 34 35 36 37 38 39 40 41 42 43 44 45 46 47 48 49 50
000
ASUS43 KGRB 221100
RWRGRB

NORTH-CENTRAL AND NORTHEAST WISCONSIN REGIONAL WEATHER ROUNDUP
NATIONAL WEATHER SERVICE GREEN BAY WI
600 AM CDT SAT JUL 22 2017

WIZ005-009-010>012-018-019-221200-
NORTH CENTRAL WISCONSIN

CITY           SKY/WX    TMP DP  RH WIND       PRES   REMARKS
IRONWOOD       CLOUDY    64  63  96 W3        29.82S FOG
MANITOWISH WTR NOT AVBL
ARBOR VITAE    NOT AVBL
EAGLE RIVER    NOT AVBL
LAND O LAKES   NOT AVBL
RHINELANDER    CLOUDY    64  62  93 SW3       29.86R
PHILLIPS       CLOUDY    65  65 100 CALM      29.84R
ANTIGO         NOT AVBL
TOMAHAWK       NOT AVBL
MERRILL        CLOUDY    65  65 100 CALM      29.84R FOG
$$

WIZ013-073-221200-
NORTHEAST WISCONSIN

CITY           SKY/WX    TMP DP  RH WIND       PRES   REMARKS
IRON MOUNTAIN  CLOUDY    63  60  90 CALM      29.82S FOG
MARINETTE      CLOUDY    69  61  75 SE5       29.81F
$$

WIZ017-030-035>037-045-221200-
CENTRAL WISCONSIN

CITY           SKY/WX    TMP DP  RH WIND       PRES   REMARKS
MEDFORD        NOT AVBL
WAUSAU         CLOUDY    66  65  96 S8        29.81R FOG
MOSINEE        FOG       64  64 100 S6        29.84R VSB 1/2
MARSHFIELD     FOG       67  66  97 CALM      29.82R VSB 1/4
WISC RAPIDS    FOG       66  66 100 CALM      29.83R VSB 1
STEVENS POINT  NOT AVBL
WAUPACA        NOT AVBL
SHAWANO        CLOUDY    66  58  75 CALM      29.81R
CLINTONVILLE   NOT AVBL
WAUTOMA        CLOUDY    65  64  97 CALM      29.82R
$$

WIZ038-039-048-051-221200-
FOX VALLEY

CITY           SKY/WX    TMP DP  RH WIND       PRES   REMARKS
NWS GREEN BAY  MOCLDY    67  64  90 CALM      29.79F
APPLETON       CLOUDY    66  55  68 CALM      29.79R
OSHKOSH        CLOUDY    68  62  81 E5        29.79S
FOND DU LAC    CLOUDY    67  61  81 CALM      29.80R
$$

WIZ022-050-052-221200-
EAST CENTRAL WISCONSIN

CITY           SKY/WX    TMP DP  RH WIND       PRES   REMARKS
EPHRAIM        NOT AVBL
WASHINGTON ISL NOT AVBL
STURGEON BAY     N/A     68  62  81 E6        29.81F
MANITOWOC      NOT AVBL
SHEBOYGAN      CLOUDY    67  66  97 NE5       29.79S
$$

LMZ563-521-522-541>543-221200-
LAKESHORE

STATION/POSITION TIME  TEMP    WIND        PRES    VSBY  WAVE
                       AIR SEA DIR/SP/G                  HT/PER
                 (UTC) (F)     (DEG/KT/KT) (MB)    (MI)  (FT/S)
SHEBOYGAN LKSHOR 1000   67      70/  3/  3 1008.0F
KEWAUNEE LKSHORE 1030   67      90/  3/  4 1009.0F
NORTHPORT PIER   1040   69     160/  3/  4 1009.8R
N MID LAKE BUOY  0950   67 66  200/  6/  6 1010.8F         1/ 3
S GREEN BAY BUOY 1030   71 73  140/  6/  6 1009.1F
SISTER BAY LKSHO 1017   68     180/  4/  6   N/A
CHAMBERS ISLAND  1040   69     110/  3/  4 1008.8F
MENOMINEE LKSHOR 1030   71      CALM  /  2 1009.5F
$$




USA.gov is the U.S. government's official web portal to all federal, state and local government web resources and services.